Weather History for Ellington Field, TX

Change the Weather History Date:

Saturday, November 23, 2013

  Actual Average Record
Temperature  
Mean Temperature 47 °F -  
Max Temperature 50 °F 69 °F 84 °F (2001)
Min Temperature 44 °F 50 °F 42 °F (2002)
Degree Days  
Heating Degree Days 18    
Moisture  
Dew Point 46 °F    
Average Humidity 94    
Maximum Humidity 100    
Minimum Humidity 71    
Precipitation  
Precipitation 0.00 in - - ()
Sea Level Pressure  
Sea Level Pressure 30.32 in    
Wind  
Wind Speed 14 mph (North)    
Max Wind Speed 20 mph    
Max Gust Speed 23 mph    
Visibility 7 miles    
Events Rain    
Averages and records for this station are not official NWS values.
T = Trace of Precipitation, MM = Missing Value Source: NWS Daily Summary

Daily Weather History Graph

Daily Weather History Graph

Search for Another Location

Airport:

Trip Planner

Search our weather history database for the weather conditions in past years. The results will help you decide how hot, cold, wet, or windy it might be!

Date:

Astronomy

Nov. 23, 2013 Rise Set
Actual Time 6:51 AM CST 5:22 PM CST
Civil Twilight 6:26 AM CST 5:47 PM CST
Nautical Twilight 5:57 AM CST 6:16 PM CST
Astronomical Twilight 5:28 AM CST 6:45 PM CST
Moon 10:41 PM CST (11/23) 11:17 AM CST (11/23)
Length of Visible Light 11h 21m
Length of Day
10h 30m
Waning Gibbous, 69% of the Moon is Illuminated
Nov 23
Waning Gibbous
Nov 25
Last Quarter
Dec 2
New
Dec 9
First Quarter
Dec 17
Full

Hourly Weather History & Observations

Time (CST) Temp. Windchill Dew Point Humidity Pressure Visibility Wind Dir Wind Speed Gust Speed Precip Events Conditions
12:50 AM 46.4 °F 40.4 °F 44.6 °F 93% 30.27 in 7.0 mi NNW 13.8 mph - N/A   Overcast
1:50 AM 44.6 °F 38.1 °F 44.6 °F 100% 30.26 in 7.0 mi NW 13.8 mph - N/A   Overcast
2:50 AM 44.6 °F 38.4 °F 44.6 °F 100% 30.26 in 5.0 mi NNW 12.7 mph - N/A   Overcast
3:50 AM 44.6 °F 38.4 °F 44.6 °F 100% 30.26 in 7.0 mi NNW 12.7 mph - N/A   Overcast
4:50 AM 44.6 °F 38.8 °F 44.6 °F 100% 30.26 in 7.0 mi NNW 11.5 mph - N/A   Overcast
5:50 AM 44.6 °F 38.8 °F 44.6 °F 100% 30.27 in 5.0 mi NNW 11.5 mph - N/A Rain Light Rain
6:50 AM 44.6 °F 38.8 °F 44.6 °F 100% 30.29 in 6.0 mi NNW 11.5 mph - N/A   Overcast
7:50 AM 46.4 °F 41.1 °F 46.4 °F 100% 30.32 in 6.0 mi NNW 11.5 mph - N/A   Overcast
8:50 AM 48.2 °F - 48.2 °F 100% 30.32 in 6.0 mi NNW 13.8 mph - N/A   Overcast
9:50 AM 48.2 °F - 48.2 °F 100% 30.33 in 4.0 mi NNW 13.8 mph - N/A   Overcast
10:50 AM 50.0 °F - 48.2 °F 94% 30.35 in 5.0 mi NNW 16.1 mph 23.0 mph N/A   Overcast
11:50 AM 50.0 °F - 48.2 °F 94% 30.32 in 5.0 mi North 13.8 mph - N/A   Overcast
12:50 PM 50.0 °F - 50.0 °F 100% 30.30 in 3.0 mi NNW 15.0 mph - N/A   Overcast
1:50 PM 50.0 °F - 50.0 °F 100% 30.30 in 4.0 mi NW 13.8 mph - N/A   Overcast
2:50 PM 48.2 °F - 48.2 °F 100% 30.30 in 6.0 mi North 13.8 mph 23.0 mph N/A   Overcast
3:50 PM 48.2 °F - 48.2 °F 100% 30.32 in 10.0 mi North 15.0 mph 23.0 mph N/A   Overcast
4:50 PM 48.2 °F - 46.4 °F 93% 30.32 in 10.0 mi North 12.7 mph - N/A   Overcast
5:50 PM 48.2 °F - 46.4 °F 93% 30.32 in 10.0 mi North 13.8 mph - N/A   Overcast
6:50 PM 48.2 °F - 42.8 °F 82% 30.34 in 10.0 mi North 19.6 mph - N/A   Overcast
7:50 PM 48.2 °F - 42.8 °F 82% 30.35 in 10.0 mi North 15.0 mph 23.0 mph N/A   Overcast
8:50 PM 48.2 °F - 42.8 °F 82% 30.37 in 10.0 mi North 13.8 mph - N/A   Overcast
9:50 PM 48.2 °F - 42.8 °F 82% 30.37 in 10.0 mi NNE 16.1 mph - N/A   Overcast
10:50 PM 48.2 °F - 42.8 °F 82% 30.39 in 10.0 mi NNE 18.4 mph - N/A   Overcast
11:50 PM 48.2 °F - 39.2 °F 71% 30.38 in 10.0 mi NNE 15.0 mph 23.0 mph N/A   Overcast